User: anonymous   Login
Location: Dillon
(41.1766°N, 107.0923°W)
Time: 12:48:18
(UTC+00:00)
Language:

Cosmos 1420 Rocket - Orbit

View from above orbital plane
View from above orbital plane
View from above satellite
View from above satellite

Ground track
Ground track

The orbit data is extracted from the following two-line orbital elements,

1 13649U 82109B   22337.87103307  .00000137  00000-0  54749-4 0  9993
2 13649  73.9998 293.3612 0018960 337.5678  89.4444 14.37372414 98050
Epoch (UTC): 03 December 2022 20:54:17
Eccentricity: 0.0018960
inclination: 73.9998°
perigee height: 753 km
apogee height: 781 km
right ascension of ascending node: 293.3612°
argument of perigee: 337.5678°
revolutions per day: 14.37372414
mean anomaly at epoch: 89.4444°
orbit number at epoch: 9805

The dashed part of the orbit path shows where the satellite is in the earth's shadow,  

DLR